Weather History for KHLN - March, 2014

Change the Weather History Date:

Thursday, March 6, 2014

  Actual Average Record
Temperature  
Mean Temperature 43 °F 33 °F  
Max Temperature 50 °F 45 °F 65 °F (1987)
Min Temperature 36 °F 21 °F -20 °F (1920)
Degree Days  
Heating Degree Days 22 32  
Month to date heating degree days 257 197  
Since 1 July heating degree days 5773 5758  
Cooling Degree Days 0 0  
Month to date cooling degree days 0 0  
Year to date cooling degree days 0 0  
Moisture  
Dew Point 32 °F    
Average Humidity 64    
Maximum Humidity 79    
Minimum Humidity 49    
Precipitation  
Precipitation 0.05 in 0.02 in 0.46 in (1969)
Month to date precipitation 0.17 0.09  
Year to date precipitation 2.70 0.75  
Snow  
Snow 0.00 in 0.20 in 5.40 in (1969)
Month to date snowfall 3.0 1.2  
Since 1 July snowfall 41.0 28.5  
Snow Depth 4.00 in    
Sea Level Pressure  
Sea Level Pressure 29.78 in    
Wind  
Wind Speed 9 mph (SW)    
Max Wind Speed 33 mph    
Max Gust Speed 40 mph    
Visibility 10 miles    
Events Rain    
T = Trace of Precipitation, MM = Missing Value Source: NWS Daily Summary

Daily Weather History Graph

Daily Weather History Graph

Search for Another Location

Airport or City:

Trip Planner

Search our weather history database for the weather conditions in past years. The results will help you decide how hot, cold, wet, or windy it might be!

Date:

Astronomy

Mar. 06, 2014 Rise Set
Actual Time 6:57 AM MST 6:21 PM MST
Civil Twilight 6:27 AM MST 6:51 PM MST
Nautical Twilight 5:52 AM MST 7:26 PM MST
Astronomical Twilight 5:17 AM MST 8:01 PM MST
Moon 9:47 AM MST (3/6) No Moon Set
Length of Visible Light 12h 23m
Length of Day
11h 23m
Waxing Crescent, 33% of the Moon is Illuminated
Mar 6
Waxing Crescent
Mar 8
First Quarter
Mar 16
Full
Mar 23
Last Quarter
Mar 30
New

Hourly Weather History & Observations

Time (MST) Temp. Windchill Dew Point Humidity Pressure Visibility Wind Dir Wind Speed Gust Speed Precip Events Conditions
12:53 AM 46.0 °F 41.9 °F 32.0 °F 58% 29.73 in 10.0 mi SSE 8.1 mph 17.3 mph N/A   Overcast
1:53 AM 48.0 °F - 34.0 °F 58% 29.69 in 10.0 mi South 13.8 mph 23.0 mph N/A   Overcast
2:53 AM 46.9 °F - 34.0 °F 61% 29.63 in 10.0 mi SSE 10.4 mph 19.6 mph N/A   Mostly Cloudy
3:53 AM 46.9 °F - 34.0 °F 61% 29.62 in 10.0 mi South 12.7 mph - N/A   Mostly Cloudy
4:53 AM 48.0 °F - 34.0 °F 58% 29.60 in 10.0 mi South 11.5 mph 17.3 mph N/A   Partly Cloudy
5:53 AM 41.0 °F 37.1 °F 33.1 °F 73% 29.60 in 10.0 mi WSW 5.8 mph - N/A   Mostly Cloudy
6:53 AM 43.0 °F 35.4 °F 36.0 °F 76% 29.72 in 10.0 mi West 16.1 mph - 0.03 in Rain Light Rain
7:53 AM 42.1 °F 39.2 °F 35.1 °F 76% 29.75 in 10.0 mi SW 4.6 mph - 0.01 in   Overcast
8:53 AM 41.0 °F 38.0 °F 35.1 °F 79% 29.76 in 10.0 mi East 4.6 mph - N/A   Scattered Clouds
9:53 AM 43.0 °F - 35.1 °F 74% 29.77 in 10.0 mi Calm Calm - N/A   Partly Cloudy
10:53 AM 42.1 °F 39.2 °F 34.0 °F 73% 29.79 in 10.0 mi East 4.6 mph - N/A   Overcast
11:53 AM 45.0 °F 42.6 °F 34.0 °F 65% 29.82 in 10.0 mi North 4.6 mph - N/A   Mostly Cloudy
12:53 PM 46.9 °F - 30.0 °F 52% 29.77 in 10.0 mi West 11.5 mph - N/A   Overcast
1:53 PM 46.9 °F - 32.0 °F 56% 29.76 in 10.0 mi Variable 4.6 mph - N/A   Mostly Cloudy
2:53 PM 46.0 °F 40.6 °F 30.9 °F 56% 29.77 in 10.0 mi NNW 11.5 mph - N/A   Overcast
3:53 PM 46.0 °F 39.0 °F 30.0 °F 54% 29.79 in 10.0 mi WSW 17.3 mph 25.3 mph 0.00 in   Overcast
4:53 PM 46.0 °F 39.3 °F 28.9 °F 51% 29.79 in 10.0 mi WSW 16.1 mph - N/A   Clear
5:53 PM 44.1 °F 39.5 °F 30.0 °F 58% 29.82 in 10.0 mi WNW 8.1 mph - N/A   Clear
6:53 PM 39.0 °F 29.6 °F 32.0 °F 76% 29.87 in 5.0 mi SW 18.4 mph 40.3 mph 0.00 in Rain Light Rain
7:02 PM 39.2 °F 31.6 °F 30.2 °F 70% 29.79 in 10.0 mi SSW 12.7 mph 25.3 mph 0.01 in Rain Light Rain
7:53 PM 42.1 °F 36.1 °F 28.0 °F 58% 29.86 in 10.0 mi West 10.4 mph 21.9 mph 0.01 in   Partly Cloudy
8:53 PM 39.0 °F 33.4 °F 30.0 °F 70% 29.91 in 10.0 mi North 8.1 mph - N/A   Clear
9:53 PM 36.0 °F 32.1 °F 28.9 °F 76% 29.92 in 10.0 mi SSE 4.6 mph - N/A   Clear
10:53 PM 37.0 °F - 30.0 °F 76% 29.94 in 10.0 mi Calm Calm - N/A   Overcast
11:53 PM 37.0 °F 34.5 °F 30.0 °F 76% 29.95 in 10.0 mi SSW 3.5 mph - N/A   Overcast